sat.trackr.live / text

‹ back to catalog

STARLINK-37371

NORAD 68977 · 2026-099AC

PAYLOAD ACTIVE UNKNOWN

§ Identity

Operator
Country
US
Launch date
2026-05-01
Launch site
AFETR
Launch vehicle
Mass (kg)
RCS (m²)

Purposes: comms

External: N2YO · Heavens-Above · Gunter

§ Orbital elements

Epoch: 2026-09-19T21:07:57.880128Z

Period
93.85 min
Inclination
53.1586°
Eccentricity
0.0001312
Mean motion
15.34398018 rev/d
Perigee alt
461.8 km
Apogee alt
463.6 km
Semi-major
6,840.8 km
B*
4.3492e-4
RAAN
78.3590°
Arg perigee
94.7946°
Mean anomaly
265.3206°
Rev number
2,181

§ Raw data

STARLINK-373711 68977U 26099AC  26262.88053102  .00014345  00000+0  43492-3 0  99992 68977  53.1586  78.3590 0001312  94.7946 265.3206 15.34398018 21813

JSON: /api/v1/satellites/68977 · /tle

For live sub-satellite position, see the globe view (requires WebGL).

§ Visibility from observer

Set your observer location to see the next 7 days of passes ≥ 10°. The values pass through the URL so the page stays shareable.

No JS? Fill the form by hand. The geolocation button needs JavaScript.